CW7412 Weather Reports


time (UTC)temp
C
wind
direction
speed
KPH
gust
KPH
rain 1hr
cm
rain 24hr
cm
rain mn
cm
humidity
%
barometer
mb
20260509011704 15 165 0.0 0.0 0.00 0.00 0.00 50 1012.2
20260509011204 15 161 0.0 0.0 0.00 0.00 0.00 48 1012.3
20260509004704 16 35 0.0 0.0 0.00 0.00 0.00 43 1012.3
20260509004204 17 202 0.0 0.0 0.00 0.00 0.00 39 1012.3
20260509003704 17 158 0.0 0.0 0.00 0.00 0.00 38 1012.3
20260509000204 20 315 0.0 0.0 0.00 0.00 0.00 31 1012.2
20260508234704 21 305 0.0 3.2 0.00 0.00 0.00 30 1012.0
20260508234204 21 270 1.6 4.8 0.00 0.03 0.00 30 1012.0
20260508230704 21 123 3.2 8.0 0.00 0.03 0.00 30 1012.3
20260508230204 22 269 4.8 9.7 0.00 0.03 0.00 30 1012.4
20260508224204 22 59 3.2 9.7 0.00 0.03 0.00 29 1012.7
20260508223704 22 305 3.2 9.7 0.00 0.03 0.00 31 1012.7
20260508223204 22 152 4.8 9.7 0.00 0.03 0.00 29 1012.7
20260508221704 22 103 3.2 8.0 0.00 0.03 0.00 28 1012.7
20260508221204 22 118 0.0 4.8 0.00 0.03 0.00 28 1012.6
20260508220704 22 85 3.2 8.0 0.00 0.03 0.00 28 1012.6
20260508213704 22 162 4.8 9.7 0.00 0.03 0.00 27 1012.4
20260508213204 22 238 4.8 11.3 0.00 0.03 0.00 27 1012.3
20260508201704 22 97 8.0 12.9 0.00 0.03 0.00 30 1013.0
20260508200704 21 22 8.0 9.7 0.00 0.03 0.00 31 1013.3
20260508200204 22 79 8.0 11.3 0.00 0.03 0.00 27 1013.3
20260508191704 21 135 3.2 9.7 0.00 0.03 0.00 30 1014.3
20260508191204 21 121 8.0 14.5 0.00 0.03 0.00 29 1014.8
20260508190704 21 108 8.0 14.5 0.00 0.03 0.00 30 1014.8
20260508190204 21 74 8.0 12.9 0.00 0.03 0.00 32 1014.8
20260508184204 21 120 8.0 19.3 0.00 0.03 0.00 33 1015.0
20260508183704 21 85 9.7 12.9 0.00 0.03 0.00 30 1015.1
20260508181204 20 133 9.7 14.5 0.00 0.03 0.00 31 1015.5
20260508180704 20 169 6.4 9.7 0.00 0.03 0.00 30 1015.5
20260508180204 20 15 1.6 12.9 0.00 0.03 0.00 33 1015.5
20260508174704 20 80 6.4 12.9 0.00 0.03 0.00 33 1015.8
20260508174204 20 113 4.8 12.9 0.00 0.03 0.00 35 1015.8
20260508173204 19 50 8.0 12.9 0.00 0.03 0.00 31 1016.3
20260508171704 20 57 9.7 12.9 0.00 0.03 0.00 32 1016.3
20260508171204 20 82 11.3 16.1 0.00 0.03 0.00 33 1016.5
20260508163204 18 194 4.8 14.5 0.00 0.03 0.00 41 1017.1
20260508161204 18 60 3.2 8.0 0.00 0.03 0.00 39 1017.5
20260508160204 18 75 3.2 9.7 0.00 0.03 0.00 39 1017.5
20260508154204 17 35 6.4 9.7 0.00 0.03 0.00 36 1017.8
20260508153704 17 60 8.0 9.7 0.00 0.03 0.00 41 1017.8
20260508153204 17 58 8.0 16.1 0.00 0.03 0.00 42 1017.8
20260508150704 16 112 8.0 9.7 0.00 0.03 0.00 47 1018.0
20260508144204 15 157 3.2 9.7 0.00 0.03 0.00 58 1018.1
20260508143704 15 149 4.8 8.0 0.00 0.03 0.00 59 1018.1
20260508143204 15 180 0.0 4.8 0.00 0.03 0.00 63 1018.1
20260508141204 13 233 1.6 4.8 0.00 0.03 0.00 68 1018.0
20260508133703 11 140 0.0 0.0 0.00 0.03 0.00 73 1017.8
20260508130704 9 136 3.2 4.8 0.00 0.03 0.00 85 1017.8
20260508123704 7 101 0.0 0.0 0.00 0.03 0.00 91 1017.7
20260508123204 6 113 0.0 0.0 0.00 0.03 0.00 92 1017.7
20260508121704 4 270 0.0 0.0 0.00 0.03 0.00 95 1017.6
20260508120204 3 112 0.0 0.0 0.00 0.03 0.00 95 1017.7
20260508113703 2 135 0.0 0.0 0.00 0.03 0.00 95 1017.4
20260508111204 2 158 0.0 0.0 0.00 0.03 0.00 95 1017.0
20260508110703 2 135 0.0 0.0 0.00 0.03 0.00 95 1017.0
20260508104704 2 311 0.0 0.0 0.00 0.03 0.00 95 1016.8
20260508104204 2 346 0.0 0.0 0.00 0.03 0.00 95 1016.8
20260508101704 2 122 0.0 0.0 0.00 0.03 0.00 95 1016.5
20260508100204 2 243 0.0 0.0 0.00 0.03 0.00 95 1016.3
20260508094204 2 135 0.0 0.0 0.00 0.03 0.00 95 1016.3
20260508093704 2 327 0.0 0.0 0.00 0.03 0.00 95 1016.3
20260508093204 2 270 0.0 0.0 0.00 0.03 0.00 95 1016.3
20260508091703 2 124 0.0 0.0 0.00 0.03 0.00 95 1016.3
20260508090204 3 112 0.0 0.0 0.00 0.05 0.00 95 1016.3
20260508084704 3 237 0.0 0.0 0.00 0.05 0.00 95 1016.3
20260508084204 3 270 0.0 0.0 0.00 0.05 0.00 95 1016.3
20260508083704 3 270 0.0 0.0 0.00 0.05 0.00 95 1016.3
20260508080703 3 292 0.0 0.0 0.00 0.05 0.00 95 1016.5
20260508073704 3 12 0.0 0.0 0.00 0.05 0.00 95 1016.5
20260508073204 3 45 0.0 0.0 0.00 0.05 0.00 95 1016.5
20260508071204 3 125 0.0 0.0 0.00 0.05 0.00 95 1016.6
20260508063204 4 270 0.0 0.0 0.00 0.05 0.00 95 1016.6
20260508061704 4 248 0.0 0.0 0.00 0.05 0.00 95 1016.3
20260508060704 4 225 0.0 0.0 0.00 0.05 0.00 95 1016.5
20260508054204 5 202 0.0 0.0 0.00 0.05 0.00 92 1016.7
20260508053704 5 158 0.0 0.0 0.00 0.05 0.00 92 1016.7
20260508053204 5 110 0.0 0.0 0.00 0.05 0.00 92 1016.8
20260508051204 5 202 0.0 0.0 0.00 0.05 0.00 93 1016.8
20260508050704 5 225 0.0 0.0 0.00 0.05 0.00 93 1016.8
20260508044704 5 261 0.0 0.0 0.00 0.05 0.00 93 1016.7
20260508043704 5 265 0.0 0.0 0.00 0.05 0.00 93 1016.6
20260508040704 6 112 0.0 0.0 0.00 0.05 0.00 86 1016.3
20260508040204 6 112 0.0 0.0 0.00 0.05 0.00 86 1016.3
20260508034704 6 225 0.0 0.0 0.00 0.05 0.05 88 1016.2
20260508033704 6 242 0.0 0.0 0.00 0.05 0.05 83 1016.1
20260508031204 7 270 0.0 0.0 0.00 0.10 0.05 78 1016.3
20260508030704 7 292 0.0 0.0 0.00 0.10 0.05 81 1016.3
20260508030204 7 273 0.0 0.0 0.00 0.15 0.05 79 1016.3
20260508024704 8 251 0.0 0.0 0.00 0.30 0.05 81 1016.0
20260508024204 8 248 0.0 0.0 0.00 0.30 0.05 81 1016.0
20260508023704 8 226 0.0 0.0 0.00 0.30 0.05 76 1015.8
20260508021704 8 242 0.0 0.0 0.00 0.30 0.05 82 1015.8
20260508020704 8 270 0.0 0.0 0.00 0.30 0.05 79 1015.7
20260508020204 8 270 0.0 0.0 0.00 0.30 0.05 76 1015.6
20260508014704 9 270 0.0 0.0 0.00 0.30 0.05 77 1015.2
20260508014204 9 269 0.0 0.0 0.00 0.33 0.05 72 1015.2
20260508013704 10 244 0.0 0.0 0.00 0.36 0.05 72 1015.0